Overview Statistics Trail Chart Weather Telemetry Raw packets
 

This is the latest recevied weather packets stored in our database for station/object SM0UQT-10. If no packets are shown the sender has not sent any weather packets the latest 10 day(s).

<< 5 6 7 8 9 10 11 >>
Time Temp. Humidity Pressure Rain* Wind** Luminosity Snow
1788488622 9.44° C 59% 990.4 hPa - - - -
1788487747 9.44° C 58% 990.5 hPa - - - -
1788486822 9.44° C 58% 990.7 hPa - - - -
1788485941 9.44° C 58% 990.9 hPa - - - -
1788485022 9.44° C 58% 991 hPa - - - -
1788484122 9.44° C 58% 991.1 hPa - - - -
1788483221 10° C 58% 991.4 hPa - - - -
1788482321 10° C 57% 991.5 hPa - - - -
1788481421 10° C 57% 991.5 hPa - - - -
1788480521 10° C 57% 991.6 hPa - - - -
1788479621 10° C 58% 991.6 hPa - - - -
1788478721 10.56° C 57% 991.7 hPa - - - -
1788477821 10.56° C 57% 991.8 hPa - - - -
1788476921 10.56° C 56% 991.9 hPa - - - -
1788476021 11.11° C 57% 992 hPa - - - -
1788475121 11.11° C 57% 992.2 hPa - - - -
1788474221 11.67° C 56% 992.5 hPa - - - -
1788473321 11.67° C 56% 992.4 hPa - - - -
1788472420 11.67° C 56% 992.4 hPa - - - -
1788471520 12.78° C 52% 992.4 hPa - - - -
1788470620 12.22° C 56% 992.6 hPa - - - -
1788469730 12.22° C 56% 992.7 hPa - - - -
1788468830 12.22° C 56% 992.7 hPa - - - -
1788467930 12.22° C 55% 992.9 hPa - - - -
1788467030 12.78° C 55% 993 hPa - - - -

* Rain since midnight (hover to see other rain measurements)
** Current wind speed in m/s (hover to see current wind gust speed)